This demonstration page uses our WeatherBlox Daily Observations layout. Learn more.

Left ArrowRight Arrow

Hourly Observations for September 19, 2016

Temp ( °F °C ) Dew Point ( °F °C ) Humidity (%) Winds ( mph kmh ) Pressure ( in mb ) Visibility ( mi km ) Precip ( " mm )
12:51 am 00:51 Clear 67 19.4 43 6.1 42 42 Calm 29.93 1014 10 16.0934 0 0
1:51 am 01:51 Clear 62 16.7 44 6.7 52 52 Calm 29.93 1014 10 16.0934 0 0
2:51 am 02:51 Clear 62 16.7 42 5.6 48 48 Calm 29.93 1013 10 16.0934 0 0
3:51 am 03:51 Clear with Light Rain 61 16.1 42 5.6 50 50 NE 8 13 29.92 1013 10 16.0934 0 0.0254
4:51 am 04:51 Clear 58 14.4 44 6.7 60 60 Calm 29.94 1014 10 16.0934 0 0.0254
5:51 am 05:51 Clear 59 15 44 6.7 58 58 S 5 7 29.96 1015 10 16.0934 0 0
6:51 am 06:51 Sunny 61 16.1 46 7.8 58 58 ESE 3 6 30 1016 10 16.0934 0 0
7:51 am 07:51 Sunny 70 21.1 38 3.3 31 31 S 5 7 30 1016 10 16.0934 0 0
8:51 am 08:51 Sunny 77 25 35 1.7 22 22 SE 3 6 30.01 1016 10 16.0934 0 0
9:51 am 09:51 Sunny 78 25.6 43 6.1 29 29 NW 6 9 30 1016 10 16.0934 0 0
10:51 am 10:51 Sunny 85 29.4 40 4.4 20 20 VRB 3 6 29.97 1015 10 16.0934 0 0
11:51 am 11:51 Sunny 88 31.1 38 3.3 17 17 SSW 3 6 29.95 1014 10 16.0934 0 0
12:51 pm 12:51 Sunny 90 32.2 37 2.8 15 15 Calm 29.92 1013 10 16.0934 0 0
1:51 pm 13:51 Sunny 94 34.4 34 1.1 12 12 WNW 3 6 29.89 1012 10 16.0934 0 0
2:51 pm 14:51 Sunny 95 35 34 1.1 12 12 Calm 29.86 1011 10 16.0934 0 0
3:51 pm 15:51 Sunny 93 33.9 31 -0.6 11 11 W 5 7 29.85 1011 10 16.0934 0 0
4:51 pm 16:51 Sunny 93 33.9 37 2.8 14 14 WNW 6 9 29.85 1011 10 16.0934 0 0
5:51 pm 17:51 Sunny 88 31.1 44 6.7 22 22 W 6 9 29.86 1011 10 16.0934 0 0
6:51 pm 18:51 Clear 81 27.2 47 8.3 30 30 N 6 9 29.88 1012 10 16.0934 0 0
7:51 pm 19:51 Clear 84 28.9 42 5.6 23 23 NNW 13 20 29.89 1012 10 16.0934 0 0
8:51 pm 20:51 Clear 82 27.8 40 4.4 22 22 NW 13 20 29.9 1013 10 16.0934 0 0.0254
9:51 pm 21:51 Clear 81 27.2 39 3.9 22 22 WNW 14 22 29.91 1013 10 16.0934 0 0
10:51 pm 22:51 Clear 81 27.2 38 3.3 21 21 NW 13 20 29.91 1013 10 16.0934 0 0
11:51 pm 23:51 Clear 79 26.1 37 2.8 22 22 NNW 13 20 29.89 1012 10 16.0934 0 0

Powered by AerisWeather